Location: Unspecified
(0.0000°N, 0.0000°E)
Time: 09:06:47
(UTC+00:00)

Vanguard 1 - Pass Details

Date: 14 December 2018
Orbit: 651 x 3832 km, 34.2° (Epoch: 22 March)

Event Time Altitude Azimuth Distance (km) Brightness Sun altitude
Exits shadow 04:21:17 11° 9° (N) 1,968 11.5 -21.3°
Drops below altitude 10° 04:21:26 10° 11° (N) 2,009 11.5 -21.3°
Sets 04:24:17 0° 30° (NNE) 2,979 12.6 -20.6°
